Location: Springfield
(37.2150°N, 93.2980°W)
Time: 16:54:38
(UTC-06:00)

Envisat - Visible Passes

Search period start: 19 January 2018 00:00
Search period end: 29 January 2018 00:00
Orbit: 764 x 766 km, 98.2° (Epoch: 19 January)

Date Brightness Start Highest point End Pass type
(mag) Time Alt. Az. Time Alt. Az. Time Alt. Az.
19 Jan 5.4 20:06:09 13° NNW 20:06:09 13° NNW 20:06:42 10° NNW visible
20 Jan 4.9 19:28:45 16° N 19:28:45 16° N 19:29:49 10° N visible
21 Jan 4.9 18:51:21 14° NNE 18:51:21 14° NNE 18:52:16 10° NNE visible
21 Jan 5.6 20:31:32 13° NNW 20:31:32 13° NNW 20:32:03 10° NNW visible
22 Jan 4.9 19:54:07 19° N 19:54:07 19° N 19:55:35 10° N visible
23 Jan 4.5 19:16:42 21° NNE 19:16:42 21° NNE 19:18:32 10° N visible
23 Jan 5.9 20:56:53 10° NW 20:56:53 10° NW 20:56:59 10° NW visible
24 Jan 4.7 18:39:16 14° NE 18:39:16 14° NE 18:40:40 10° NNE visible
24 Jan 5.0 20:19:27 20° NNW 20:19:27 20° NNW 20:21:04 10° NNW visible
25 Jan 4.3 19:42:01 28° N 19:42:01 28° N 19:44:25 10° N visible
26 Jan 4.2 19:04:35 23° NE 19:04:35 23° NE 19:07:11 10° N visible
26 Jan 5.4 20:44:46 17° NW 20:44:46 17° NW 20:46:11 10° NW visible
27 Jan 4.7 18:27:07 13° NE 18:27:07 13° NE 18:28:50 10° NE visible
27 Jan 4.3 20:07:18 32° NNW 20:07:18 32° NNW 20:10:01 10° NNW visible
28 Jan 3.7 19:29:51 37° NNE 19:29:51 37° NNE 19:33:12 10° N visible
28 Jan 5.8 21:10:01 12° WNW 21:10:01 12° WNW 21:10:42 10° NW visible
